Location: Newark
(11.0000°N, 10.0000°W)
Time: 02:26:37
(UTC+00:00)

Hubble Space Telescope - Visible Passes

Search period start: 23 March 2019 00:00
Search period end: 02 April 2019 00:00
Orbit: 537 x 540 km, 28.5° (Epoch: 22 March)

Date Brightness Start Highest point End Pass type
(mag) Time Alt. Az. Time Alt. Az. Time Alt. Az.
23 Mar 2.8 05:07:19 18° SSE 05:07:19 18° SSE 05:08:49 10° SSE visible
23 Mar 3.1 20:23:09 10° WNW 20:25:46 16° NNW 20:26:57 15° N visible
24 Mar 3.3 20:13:23 10° NW 20:15:26 13° NNW 20:17:23 10° NNE visible
25 Mar 3.5 20:03:54 10° NNW 20:05:07 11° NNW 20:06:21 10° N visible
01 Apr 3.4 20:33:42 10° N 20:34:27 12° N 20:34:27 12° N visible
